Tulsa, OK

12:42 AM CDT on May 23, 2018 (GMT -0500)
Tulsa International

Weather History for KTUL - March, 2012

Change the Weather History Date:

Tuesday, March 27, 2012

  Actual Average Record
Temperature  
Mean Temperature 72 °F 55 °F  
Max Temperature 83 °F 66 °F 88 °F (1956)
Min Temperature 61 °F 43 °F 13 °F (1913)
Degree Days  
Heating Degree Days 0 11  
Month to date heating degree days 177 396  
Since 1 July heating degree days 2652 3307  
Cooling Degree Days 7 1  
Month to date cooling degree days 49 6  
Year to date cooling degree days 49 7  
Growing Degree Days 22 (Base 50)    
Moisture  
Dew Point 55 °F    
Average Humidity 61    
Maximum Humidity 84    
Minimum Humidity 37    
Precipitation  
Precipitation 0.00 in 0.11 in 1.86 in (1975)
Month to date precipitation 6.24 2.82  
Year to date precipitation 8.46 6.33  
Sea Level Pressure  
Sea Level Pressure 29.94 in    
Wind  
Wind Speed 13 mph (South)    
Max Wind Speed 28 mph    
Max Gust Speed 35 mph    
Visibility 10 miles    
Events      
T = Trace of Precipitation, MM = Missing Value Source: NWS Daily Summary

Daily Weather History Graph

Daily Weather History Graph

Search for Another Location

Airport or City:

Astronomy

Mar. 27, 2012 Rise Set
Actual Time 7:16 AM CDT 7:41 PM CDT
Civil Twilight 6:50 AM CDT 8:07 PM CDT
Nautical Twilight 6:20 AM CDT 8:37 PM CDT
Astronomical Twilight 5:49 AM CDT 9:08 PM CDT
Moon 9:56 AM CDT (3/27) No Moon Set
Length of Visible Light 13h 17m
Length of Day
12h 25m
Waxing Crescent, 22% of the Moon is Illuminated
Mar 27
Waxing Crescent
Mar 30
First Quarter
Apr 6
Full
Apr 13
Last Quarter
Apr 21
New

Hourly Weather History & Observations

Time (CDT) Temp. Heat Index Dew Point Humidity Pressure Visibility Wind Dir Wind Speed Gust Speed Precip Events Conditions
12:53 AM 69.1 °F - 54.0 °F 58% 29.92 in 10.0 mi SSE 10.4 mph - N/A   Clear
1:53 AM 69.1 °F - 55.0 °F 61% 29.93 in 10.0 mi South 12.7 mph - N/A   Clear
2:53 AM 68.0 °F - 55.0 °F 63% 29.93 in 10.0 mi SSE 9.2 mph - N/A   Clear
3:53 AM 66.9 °F - 55.9 °F 68% 29.94 in 10.0 mi SSE 11.5 mph - N/A   Clear
4:53 AM 64.0 °F - 55.9 °F 75% 29.94 in 10.0 mi SSE 9.2 mph - N/A   Clear
5:53 AM 62.1 °F - 55.9 °F 80% 29.95 in 10.0 mi SSE 8.1 mph - N/A   Clear
6:53 AM 61.0 °F - 55.0 °F 81% 29.97 in 10.0 mi SSE 9.2 mph - N/A   Clear
7:53 AM 63.0 °F - 55.9 °F 78% 29.97 in 10.0 mi SSE 10.4 mph - N/A   Partly Cloudy
8:53 AM 66.0 °F - 57.0 °F 73% 29.96 in 10.0 mi South 15.0 mph - N/A   Partly Cloudy
9:53 AM 70.0 °F - 57.9 °F 65% 29.97 in 10.0 mi SSE 9.2 mph - N/A   Partly Cloudy
10:53 AM 73.0 °F - 59.0 °F 61% 29.99 in 10.0 mi South 15.0 mph - N/A   Partly Cloudy
11:53 AM 77.0 °F - 57.9 °F 52% 29.97 in 10.0 mi South 16.1 mph 25.3 mph N/A   Partly Cloudy
12:53 PM 79.0 °F - 57.0 °F 47% 29.95 in 10.0 mi South 20.7 mph 29.9 mph N/A   Partly Cloudy
1:53 PM 81.0 °F 80.5 °F 54.0 °F 39% 29.93 in 10.0 mi SSW 16.1 mph 27.6 mph N/A   Partly Cloudy
2:53 PM 82.0 °F 81.3 °F 54.0 °F 38% 29.91 in 10.0 mi South 21.9 mph 31.1 mph N/A   Partly Cloudy
3:53 PM 81.0 °F 80.5 °F 54.0 °F 39% 29.91 in 10.0 mi South 16.1 mph 25.3 mph N/A   Partly Cloudy
4:53 PM 81.0 °F 80.5 °F 54.0 °F 39% 29.91 in 10.0 mi SSW 13.8 mph 23.0 mph N/A   Scattered Clouds
5:53 PM 79.0 °F - 55.0 °F 44% 29.89 in 10.0 mi South 17.3 mph 24.2 mph N/A   Partly Cloudy
6:53 PM 78.1 °F - 54.0 °F 43% 29.89 in 10.0 mi South 16.1 mph - N/A   Partly Cloudy
7:53 PM 75.9 °F - 53.1 °F 45% 29.90 in 10.0 mi South 10.4 mph - N/A   Partly Cloudy
8:53 PM 73.9 °F - 54.0 °F 50% 29.91 in 10.0 mi South 9.2 mph - N/A   Partly Cloudy
9:53 PM 72.0 °F - 54.0 °F 53% 29.94 in 10.0 mi South 8.1 mph - N/A   Clear
10:53 PM 71.1 °F - 55.9 °F 59% 29.96 in 10.0 mi South 10.4 mph - N/A   Clear
11:53 PM 70.0 °F - 55.9 °F 61% 29.95 in 10.0 mi South 8.1 mph - N/A   Clear